St. Thomas, VI

8:05 AM AST on April 24, 2017 (GMT -0400)
King

Weather History for TIST - January, 2013

Change the Weather History Date:

Wednesday, January 16, 2013

  Actual Average Record
Temperature  
Mean Temperature 78 °F 79 °F  
Max Temperature 82 °F 85 °F 91 °F (1984)
Min Temperature 73 °F 72 °F 65 °F (1980)
Degree Days  
Heating Degree Days 0 0  
Month to date heating degree days 0 0  
Since 1 July heating degree days 0 0  
Cooling Degree Days 13 14  
Month to date cooling degree days 226 224  
Year to date cooling degree days 226 224  
Growing Degree Days 28 (Base 50)    
Moisture  
Dew Point 66 °F    
Average Humidity 73    
Maximum Humidity 87    
Minimum Humidity 58    
Precipitation  
Precipitation 0.00 in 0.08 in 0.83 in (2006)
Month to date precipitation 0.55 1.35  
Year to date precipitation 0.55 1.35  
Sea Level Pressure  
Sea Level Pressure 30.02 in    
Wind  
Wind Speed 9 mph (East)    
Max Wind Speed 22 mph    
Max Gust Speed 29 mph    
Visibility 10 miles    
Events      
T = Trace of Precipitation, MM = Missing Value Source: NWS Daily Summary

Daily Weather History Graph

Daily Weather History Graph

Search for Another Location

Airport or City:

Trip Planner

Search our weather history database for the weather conditions in past years. The results will help you decide how hot, cold, wet, or windy it might be!

Date:

Astronomy

Jan. 16, 2013 Rise Set
Actual Time 6:54 AM AST 6:04 PM AST
Civil Twilight 6:31 AM AST 6:28 PM AST
Nautical Twilight 6:04 AM AST 6:54 PM AST
Astronomical Twilight 5:38 AM AST 7:21 PM AST
Moon 10:20 AM AST (1/16) 10:55 PM AST (1/16)
Length of Visible Light 11h 56m
Length of Day
11h 09m
Waxing Crescent, 27% of the Moon is Illuminated
Jan 16
Waxing Crescent
Jan 18
First Quarter
Jan 27
Full
Feb 3
Last Quarter
Feb 10
New

Hourly Weather History & Observations

Time (AST) Temp. Heat Index Dew Point Humidity Pressure Visibility Wind Dir Wind Speed Gust Speed Precip Events Conditions
12:53 AM 75.0 °F - 62.1 °F 64% 30.00 in 10.0 mi East 5.8 mph - N/A   Partly Cloudy
1:53 AM 75.0 °F - 64.9 °F 71% 29.99 in 10.0 mi ESE 6.9 mph - N/A   Overcast
2:53 AM 75.0 °F - 64.0 °F 69% 29.98 in 10.0 mi East 11.5 mph 18.4 mph N/A   Mostly Cloudy
3:53 AM 75.0 °F - 64.0 °F 69% 29.97 in 10.0 mi East 6.9 mph - N/A   Mostly Cloudy
4:53 AM 73.9 °F - 64.9 °F 73% 29.97 in 10.0 mi East 4.6 mph - N/A   Partly Cloudy
5:53 AM 73.0 °F - 66.9 °F 81% 29.99 in 10.0 mi East 3.5 mph - N/A   Scattered Clouds
6:53 AM 73.9 °F - 68.0 °F 82% 30.00 in 10.0 mi East 6.9 mph - N/A   Mostly Cloudy
7:53 AM 75.0 °F - 68.0 °F 79% 30.03 in 10.0 mi East 6.9 mph - N/A   Mostly Cloudy
8:53 AM 75.9 °F - 68.0 °F 76% 30.05 in 10.0 mi NE 11.5 mph 19.6 mph N/A   Overcast
9:53 AM 75.0 °F - 71.1 °F 87% 30.06 in 6.0 mi East 10.4 mph 16.1 mph N/A   Mostly Cloudy
10:16 AM 75.2 °F - 71.6 °F 89% 30.06 in 10.0 mi East 8.1 mph - N/A   Overcast
10:53 AM 77.0 °F - 69.1 °F 76% 30.05 in 10.0 mi East 11.5 mph - N/A   Mostly Cloudy
11:14 AM 77.0 °F - 69.8 °F 78% 30.04 in 10.0 mi ESE 9.2 mph 17.3 mph N/A   Overcast
11:37 AM 73.4 °F - 69.8 °F 88% 30.04 in 4.0 mi East 11.5 mph - N/A   Overcast
11:53 AM 75.0 °F - 70.0 °F 84% 30.04 in 10.0 mi East 9.2 mph - N/A   Overcast
12:53 PM 79.0 °F - 66.9 °F 66% 30.01 in 10.0 mi East 11.5 mph - N/A   Overcast
1:53 PM 81.0 °F 82.5 °F 64.0 °F 56% 29.98 in 10.0 mi East 12.7 mph - N/A   Overcast
2:53 PM 79.0 °F - 66.0 °F 64% 29.98 in 10.0 mi East 15.0 mph 20.7 mph N/A   Overcast
3:53 PM 81.0 °F 82.7 °F 64.9 °F 58% 29.98 in 10.0 mi East 12.7 mph 20.7 mph N/A   Scattered Clouds
4:53 PM 79.0 °F - 63.0 °F 58% 29.99 in 10.0 mi East 12.7 mph - N/A   Overcast
5:53 PM 78.1 °F - 66.9 °F 68% 30.01 in 10.0 mi ENE 8.1 mph 20.7 mph N/A   Mostly Cloudy
6:53 PM 75.9 °F - 66.9 °F 74% 30.01 in 10.0 mi ENE 11.5 mph 17.3 mph N/A   Clear
7:53 PM 75.9 °F - 64.0 °F 67% 30.04 in 10.0 mi ENE 11.5 mph - N/A   Clear
8:53 PM 75.9 °F - 64.9 °F 69% 30.05 in 10.0 mi ENE 10.4 mph - N/A   Clear
9:53 PM 75.0 °F - 66.0 °F 73% 30.06 in 10.0 mi East 5.8 mph - N/A   Mostly Cloudy
10:53 PM 75.0 °F - 66.0 °F 73% 30.06 in 10.0 mi ENE 9.2 mph - N/A   Clear
11:53 PM 75.0 °F - 64.9 °F 71% 30.04 in 10.0 mi ENE 6.9 mph - N/A   Scattered Clouds